George, South Africa

5:38 PM SAST on April 20, 2018 (GMT +0200)
George

Weather History for FAGG - November, 2012

Change the Weather History Date:

Thursday, November 1, 2012

  Actual Average Record
Temperature  
Mean Temperature 58 °F -  
Max Temperature 66 °F 69 °F 96 °F (2005)
Min Temperature 50 °F 53 °F 50 °F (2012)
Degree Days  
Heating Degree Days 7    
Growing Degree Days 8 (Base 50)    
Moisture  
Dew Point 50 °F    
Average Humidity 73    
Maximum Humidity 94    
Minimum Humidity 49    
Precipitation  
Precipitation 0.00 in - - ()
Sea Level Pressure  
Sea Level Pressure 30.28 in    
Wind  
Wind Speed 11 mph ()    
Max Wind Speed 28 mph    
Max Gust Speed 39 mph    
Visibility 8.2 miles    
Events      
Averages and records for this station are not official NWS values.
T = Trace of Precipitation, MM = Missing Value Source: Averaged Metar Reports

Daily Weather History Graph

Daily Weather History Graph

Search for Another Location

Airport or City:

Astronomy

Nov. 01, 2012 Rise Set
Actual Time 5:29 AM SAST 6:59 PM SAST
Civil Twilight 5:02 AM SAST 7:25 PM SAST
Nautical Twilight 4:31 AM SAST 7:57 PM SAST
Astronomical Twilight 3:57 AM SAST 8:31 PM SAST
Moon 9:27 PM SAST (11/1) 7:01 AM SAST (11/1)
Length of Visible Light 14h 22m
Length of Day
13h 29m
Waning Gibbous, 94% of the Moon is Illuminated
Nov 1
Waning Gibbous
Nov 7
Last Quarter
Nov 14
New
Nov 20
First Quarter
Nov 28
Full

Hourly Weather History & Observations

Time (SAST) Temp. Dew Point Humidity Pressure Visibility Wind Dir Wind Speed Gust Speed Precip Events Conditions
12:00 AM 53.6 °F 50.0 °F 88% 30.33 in - East 5.8 mph - N/A   Clear
1:00 AM 51.8 °F 50.0 °F 94% 30.33 in - East 5.8 mph - N/A   Clear
2:00 AM 53 °F 50 °F 84% 30.33 in 6 mi East 6.9 mph - -  
2:00 AM 51.8 °F 50.0 °F 94% 30.30 in - East 6.9 mph - N/A   Clear
3:00 AM 53.6 °F 50.0 °F 88% 30.30 in - East 8.1 mph - N/A   Clear
4:00 AM 53.6 °F 50.0 °F 88% 30.30 in - East 6.9 mph - N/A   Clear
5:00 AM 52 °F 49 °F 84% 30.31 in 12 mi East 6.9 mph - -  
5:00 AM 51.8 °F 48.2 °F 88% 30.30 in - East 6.9 mph - N/A   Clear
6:00 AM 51.8 °F 48.2 °F 88% 30.30 in - East 5.8 mph - N/A   Clear
7:00 AM 55.4 °F 50.0 °F 82% 30.33 in - East 4.6 mph - N/A   Clear
8:00 AM 60 °F 47 °F 52% 30.34 in 12 mi East 8.1 mph - -  
8:00 AM 59.0 °F 46.4 °F 63% 30.33 in - East 8.1 mph - N/A   Clear
9:00 AM 62.6 °F 44.6 °F 52% 30.33 in - East 15.0 mph - N/A   Clear
10:00 AM 64.4 °F 50.0 °F 59% 30.30 in - ESE 16.1 mph - N/A   Clear
11:00 AM 66 °F 51 °F 49% 30.30 in 12 mi ESE 19.6 mph - -   Scattered Clouds
11:00 AM 66.2 °F 50.0 °F 56% 30.30 in 6.2 mi ESE 19.6 mph - N/A   Partly Cloudy
12:00 PM 64.4 °F 50.0 °F 59% 30.27 in 6.2 mi ESE 24.2 mph - N/A   Partly Cloudy
1:00 PM 64.4 °F 53.6 °F 68% 30.27 in 6.2 mi ESE 23.0 mph - N/A   Partly Cloudy
2:00 PM 65 °F 53 °F 56% 30.26 in 12 mi East 23.0 mph - -   Scattered Clouds
2:00 PM 64.4 °F 51.8 °F 64% 30.24 in 6.2 mi ESE 23.0 mph - N/A   Partly Cloudy
3:00 PM 64.4 °F 51.8 °F 64% 30.21 in 6.2 mi ESE 25.3 mph - N/A   Partly Cloudy
4:00 PM 62.6 °F 51.8 °F 68% 30.21 in 6.2 mi ESE 27.6 mph 39.1 mph N/A   Partly Cloudy
5:00 PM 63 °F 51 °F 57% 30.22 in 12 mi ESE 25.3 mph - -   Scattered Clouds
5:00 PM 62.6 °F 51.8 °F 68% 30.21 in 6.2 mi ESE 25.3 mph - N/A   Partly Cloudy
6:00 PM 60.8 °F 50.0 °F 68% 30.21 in 6.2 mi ESE 21.9 mph - N/A   Partly Cloudy
7:00 PM 57.2 °F 50.0 °F 77% 30.24 in 6.2 mi East 17.3 mph - N/A   Partly Cloudy
8:00 PM 57 °F 51 °F 73% 30.26 in 12 mi ESE 15.0 mph - -   Scattered Clouds
8:00 PM 57.2 °F 50.0 °F 77% 30.24 in 6.2 mi ESE 15.0 mph - N/A   Partly Cloudy
9:00 PM 55.4 °F 50.0 °F 82% 30.24 in - East 12.7 mph - N/A   Clear
10:00 PM 53.6 °F 50.0 °F 88% 30.24 in - East 8.1 mph - N/A   Clear
11:00 PM 53.6 °F 50.0 °F 88% 30.21 in - ESE 11.5 mph - N/A   Clear